Temperature
23 22 22 21 20 20 20 19 19 19 19 18 18 18 18 18 18 18 18 18 18 18 18 18 17 17 17 17 17 17 17 17 18 18 18 18 18 18 18 18 18 18 17
23 22 21 21 20 20 20 20 19 19 19 19 18 18 18 18 18 18 18 18 18 18 18 18 17 17 17 17 17 17 17 17 17 18 18 19 19 18 18 18 17 17 17
24 22 21 21 20 20 20 20 19 19 19 19 18 18 18 18 18 18 18 18 18 18 18 18 17 17 17 17 17 17 17 17 17 17 18 19 19 18 18 17 17 17 17
24 22 22 21 20 20 20 19 19 19 19 19 18 18 18 18 18 18 18 17 17 17 17 17 17 17 17 17 17 17 17 17 17 17 17 17 17 17 18 18 17 17 17
24 23 22 21 20 20 19 19 19 19 19 19 18 18 18 18 18 17 17 17 17 17 17 17 17 17 17 17 17 17 17 17 17 17 17 17 17 17 17 17 17 17 17
24 23 22 21 20 20 19 19 19 19 19 19 18 18 18 18 18 17 17 17 17 17 17 17 17 17 17 17 17 17 17 17 17 17 17 17 17 17 17 17 17 17 16
24 23 22 21 20 20 19 19 19 19 19 18 18 18 18 18 17 17 17 17 17 17 17 17 17 17 17 17 17 17 17 16 16 16 16 16 17 17 17 17 17 16 16
24 23 22 21 20 20 19 19 19 19 19 18 18 18 18 17 17 17 17 17 17 17 17 17 17 17 17 17 17 16 16 16 16 16 16 16 16 16 16 16 16 17 17
23 23 22 21 20 20 19 19 19 18 19 18 18 18 18 17 17 17 17 17 17 16 16 16 16 16 16 16 16 16 16 16 16 16 16 16 16 16 16 16 16 16 17
23 23 22 21 20 20 19 19 18 18 18 18 18 18 17 17 17 17 17 17 17 16 16 16 16 16 16 16 16 16 16 16 16 15 15 15 15 15 15 15 15 15 16
23 22 22 21 20 20 19 19 18 18 18 18 18 17 17 17 17 16 16 16 16 16 16 16 16 16 16 16 16 15 15 15 15 15 15 15 15 15 15 15 15 15 15
23 22 22 21 20 20 19 19 18 18 18 18 17 17 17 16 16 16 16 16 16 16 16 15 15 15 15 15 15 15 15 15 15 15 15 14 15 14 14 14 14 14 14
23 22 21 20 20 19 19 19 18 18 18 17 17 17 16 16 16 16 15 15 15 15 15 15 15 15 15 15 15 15 14 14 14 14 14 14 14 14 14 14 14 14 14
22 22 21 20 19 19 18 18 18 18 17 17 17 16 16 16 16 15 15 15 15 15 15 14 14 14 14 14 14 14 14 14 14 14 14 14 14 14 14 14 13 14 14
22 21 21 20 19 19 18 18 18 17 17 17 16 16 16 16 15 15 15 15 15 14 14 14 14 14 14 14 14 14 14 14 13 13 13 14 14 14 13 13 13 13 13
22 21 20 20 19 18 18 17 17 17 17 16 16 16 16 16 15 15 15 15 15 14 14 14 14 14 14 14 14 14 13 13 13 13 13 13 13 13 13 13 13 13 13
22 21 20 19 19 18 18 17 17 17 16 16 16 16 16 15 15 15 15 15 14 14 14 14 14 13 14 14 14 14 13 13 13 13 13 13 13 13 13 13 13 13 12
21 21 20 20 19 18 18 17 17 17 16 16 16 16 16 15 15 15 15 14 14 14 14 14 13 13 13 14 13 13 13 13 12 12 12 12 12 12 12 12 12 12 12
21 20 20 20 19 18 18 17 17 16 16 16 16 16 15 15 15 15 14 14 14 14 14 13 13 13 13 13 13 13 12 12 12 12 12 12 12 12 12 12 11 11 12
20 20 20 19 18 18 17 17 17 16 16 16 16 15 15 15 15 14 14 14 14 13 13 13 13 12 12 12 12 12 12 12 12 12 12 12 11 11 11 11 11 11 11
19 19 19 18 18 17 17 17 17 16 16 16 16 15 15 15 14 14 14 14 13 13 13 12 12 12 12 12 12 12 12 11 12 12 11 11 11 11 11 11 10 10 11
19 18 18 18 17 17 17 16 16 16 16 15 15 15 15 14 14 14 13 13 13 13 13 12 12 12 12 12 12 12 11 11 11 11 11 11 11 11 11 10 10 10 10
18 18 18 17 17 16 16 16 16 16 15 15 15 15 14 14 14 13 13 13 13 13 13 13 12 12 12 11 11 11 11 11 11 10 10 10 10 10 10 10 10 10 10
18 18 17 17 16 16 16 16 16 15 15 15 15 14 14 14 13 13 13 13 13 13 13 12 12 12 12 11 11 11 11 10 10 10 10 10 10 10 10 10 9 9 9
17 17 17 17 16 16 16 16 15 15 15 15 15 14 14 14 13 13 13 13 13 12 12 12 12 12 11 11 11 11 10 10 10 10 10 10 10 10 10 9 9 9 9
17 17 17 16 16 16 16 15 15 15 15 14 14 14 14 13 13 13 13 13 12 12 12 12 12 11 11 11 11 10 10 10 10 10 10 10 10 10 10 9 9 9 9
Wind_Speed
4 5 5 5 5 4 4 4 4 4 3 3 2 2 2 2 2 2 3 3 3 2 2 2 2 1 1 1 1 1 0 0 1 1 0 0 1 1 0 0 1 0 1
5 6 6 6 5 5 4 4 4 4 3 3 2 1 1 1 2 2 3 3 2 2 1 1 1 1 1 1 1 1 2 1 1 2 2 1 1 1 0 0 0 1 0
5 7 7 6 5 5 5 4 4 4 3 3 2 2 1 1 2 2 2 2 2 2 2 2 2 2 2 1 2 2 2 2 1 2 2 2 2 1 0 1 1 1 1
6 6 7 7 6 5 5 5 4 4 3 3 3 2 1 1 1 1 1 1 1 1 2 2 2 2 2 2 2 2 3 2 2 1 1 2 2 2 1 1 0 0 1
6 7 7 7 7 6 6 5 5 4 4 3 3 2 2 1 1 1 2 1 2 2 2 2 2 2 2 3 3 3 3 2 3 2 2 2 1 3 3 2 1 1 1
7 6 7 7 6 6 6 6 5 4 4 4 3 2 2 1 1 1 1 0 1 1 2 2 2 2 2 2 2 3 2 2 3 3 2 2 2 2 2 2 2 2 1
7 7 7 7 7 7 7 6 6 5 5 4 4 3 2 2 1 0 0 1 1 1 2 2 2 2 2 2 3 2 3 3 2 2 2 2 3 3 2 3 3 2 2
7 7 7 7 7 7 7 7 6 6 5 5 4 3 2 2 1 0 1 1 1 2 2 2 2 2 2 3 2 3 3 2 2 2 3 3 3 3 2 3 3 3 2
8 7 7 7 7 8 8 8 7 6 6 5 4 3 2 1 0 0 0 1 1 1 2 2 2 2 2 3 3 2 3 3 3 3 2 3 2 2 3 2 3 4 4
8 7 7 7 6 7 8 8 8 7 6 5 4 4 3 2 2 1 1 1 1 1 1 1 2 2 2 3 3 3 3 3 3 3 3 3 3 2 2 2 3 4 4
8 7 7 7 7 7 7 8 8 8 6 6 5 4 3 3 2 1 1 0 0 1 1 1 2 2 2 3 3 3 3 3 4 3 3 3 3 3 2 2 2 3 3
7 7 7 8 7 7 7 7 8 7 6 6 5 4 3 3 2 2 1 1 1 1 1 1 1 2 2 3 3 4 4 4 4 4 3 3 2 2 3 2 2 2 2
7 7 7 7 7 7 6 7 7 7 6 6 5 5 4 3 2 1 1 1 1 0 1 1 1 2 2 3 3 3 4 4 4 4 4 3 3 3 2 3 2 2 2
7 7 7 7 7 7 7 7 7 7 7 6 5 5 3 2 2 1 1 1 1 0 1 1 1 2 2 3 4 3 3 3 4 4 4 4 3 2 3 3 3 2 3
7 7 7 7 8 8 7 7 7 7 7 6 5 4 3 3 2 1 1 1 1 1 1 1 2 2 1 3 4 4 3 3 3 3 3 3 3 4 4 4 3 3 3
7 7 7 8 8 8 8 8 7 7 7 6 6 5 4 3 2 1 1 1 1 1 1 1 2 2 3 6 7 6 4 4 3 3 3 3 2 2 2 3 4 4 4
6 6 6 7 8 8 8 8 7 7 7 6 6 5 5 4 3 2 2 1 1 1 1 1 1 2 4 6 6 7 4 3 3 3 3 3 3 3 3 2 3 3 4
5 5 6 7 7 8 8 7 7 7 7 6 5 5 4 4 3 3 2 1 1 1 1 1 1 1 3 6 6 7 4 2 3 3 3 4 4 4 5 4 4 4 3
4 4 5 6 7 7 8 8 7 7 7 6 5 5 5 4 3 3 2 1 1 1 1 1 1 2 3 5 6 8 3 2 3 3 4 4 4 7 7 4 4 4 3
3 4 5 6 7 7 7 8 7 7 6 5 5 5 5 4 4 3 2 2 1 1 1 1 1 1 2 4 6 8 3 3 3 2 2 5 5 6 6 4 4 4 4
4 4 5 5 6 7 7 7 6 6 5 5 5 5 5 5 4 3 3 2 2 1 0 1 1 1 2 3 4 6 5 4 4 3 3 3 5 5 6 6 4 5 5
5 5 5 5 5 6 7 7 6 6 5 6 6 5 5 4 4 4 3 2 2 2 2 1 1 0 1 2 2 2 4 7 4 4 3 3 4 4 4 4 4 5 6
5 5 6 5 5 5 6 6 6 6 6 6 6 5 5 4 4 4 3 3 2 1 1 1 1 1 1 1 2 1 2 4 3 3 3 2 3 3 2 1 3 4 3
5 5 6 6 5 5 5 5 6 6 7 6 6 5 5 4 4 3 2 2 1 1 1 1 2 1 1 2 2 2 2 2 3 3 1 3 4 2 3 3 3 3 3
4 4 5 5 6 6 6 6 6 7 6 6 5 5 5 4 4 3 1 1 1 0 2 2 2 2 2 2 4 4 4 4 4 5 3 3 2 2 3 3 3 3 3
4 4 5 5 5 5 6 6 6 6 6 5 5 4 4 4 3 3 3 3 0 2 1 2 3 2 1 1 2 3 5 6 6 5 3 3 3 3 3 3 3 3 3
Wind_Direction
169 158 157 150 143 138 134 131 126 122 128 121 117 114 96 76 65 62 55 47 38 41 34 33 44 355 30 359 349 329 169 275 322 288 300 223 178 106 155 260 320 163 146
162 159 160 158 157 149 147 143 137 130 133 125 124 115 94 89 79 62 63 41 39 27 38 28 348 12 5 20 359 333 312 323 307 299 293 264 208 124 51 282 344 343 56
177 166 167 167 166 161 157 146 143 142 138 137 136 122 127 128 91 76 69 45 31 19 10 11 354 348 332 2 333 319 302 299 298 317 301 295 300 323 157 26 35 17 330
173 168 167 169 173 168 158 151 147 147 145 147 138 139 141 117 74 63 60 48 35 23 14 7 357 343 336 342 310 323 301 296 299 296 306 310 315 294 287 266 60 349 296
169 167 168 171 174 168 161 155 152 153 153 155 154 164 153 125 95 78 75 39 56 38 18 5 352 341 334 341 332 324 314 312 312 310 308 300 269 264 262 278 282 258 280
167 164 164 166 172 170 165 158 157 162 164 163 157 166 153 132 95 54 33 19 55 42 29 3 355 334 340 339 320 314 313 318 321 312 305 292 287 281 273 268 267 281 299
169 167 164 166 170 172 169 167 168 172 174 169 170 171 172 171 170 228 59 339 15 33 22 1 351 341 340 334 324 317 322 316 309 298 300 301 294 295 289 272 274 274 270
171 169 168 166 168 172 174 173 175 175 173 167 166 169 187 198 180 99 333 360 2 17 16 2 353 347 339 338 330 318 319 323 307 305 310 298 298 297 285 275 277 274 264
169 166 164 163 168 170 174 176 175 174 171 168 168 171 180 197 188 174 250 11 13 8 16 6 357 350 351 343 325 329 323 318 302 302 298 293 301 296 295 278 278 282 276
170 168 165 162 166 168 167 170 170 173 174 174 181 173 178 179 187 205 47 15 13 10 2 5 355 349 348 342 323 322 337 322 315 309 314 304 298 298 287 275 275 275 275
173 171 171 166 166 165 164 165 169 171 174 176 178 179 178 176 174 178 182 125 31 5 352 356 350 341 344 343 336 331 334 325 316 306 306 305 310 309 297 289 279 276 269
174 171 169 167 166 166 166 168 172 173 174 174 174 172 170 174 172 158 152 131 77 24 17 4 352 338 355 346 337 330 331 323 322 322 326 321 317 305 300 300 289 282 269
168 164 162 165 166 167 165 171 171 171 171 171 173 167 164 160 152 141 146 123 98 48 30 7 355 350 354 354 348 337 331 328 326 327 324 320 322 314 318 299 297 287 272
164 167 164 165 167 168 167 170 171 169 167 166 166 156 155 147 134 124 116 93 78 57 51 20 355 350 359 355 341 332 328 328 329 329 329 328 330 326 312 291 289 290 288
165 169 172 169 167 166 166 170 167 165 164 161 160 151 148 133 122 126 124 116 93 48 42 17 356 347 0 12 352 328 326 330 328 336 345 352 1 357 329 314 308 290 275
172 174 175 170 168 169 168 166 165 164 163 161 157 151 145 136 140 150 154 145 124 41 21 11 1 352 21 28 4 334 328 332 335 339 336 327 359 335 303 314 317 307 287
175 172 172 174 173 172 170 168 164 161 162 161 154 149 151 152 156 163 159 169 156 100 43 16 4 15 37 30 2 342 329 336 345 345 338 332 2 345 335 318 267 270 272
175 173 174 173 172 169 165 166 159 158 161 158 154 154 158 161 158 158 163 173 162 113 66 43 18 10 40 29 359 334 310 342 351 353 354 354 359 2 346 324 322 311 298
167 170 173 167 161 162 161 161 162 162 163 163 162 163 164 163 159 161 165 164 155 129 110 92 45 14 34 28 359 331 319 351 355 357 14 8 8 15 349 322 316 315 309
152 157 157 154 154 157 159 163 166 165 167 166 163 161 160 162 159 152 154 148 161 159 187 114 81 24 17 43 10 336 324 348 346 4 28 47 26 12 348 329 323 316 319
134 136 139 145 153 157 163 169 167 168 164 155 154 157 157 159 151 147 151 156 163 136 126 128 143 82 35 69 38 353 340 339 331 345 355 35 41 6 342 326 327 332 319
132 133 134 138 145 156 163 165 163 158 153 151 153 154 158 162 148 153 157 164 177 177 184 202 246 201 113 50 50 7 346 335 334 335 349 24 16 342 328 331 348 330 309
132 135 135 136 142 156 165 163 158 157 155 154 155 157 158 158 157 161 163 177 187 219 238 262 295 325 5 104 120 236 301 316 320 338 9 349 306 295 309 323 308 301 309
139 140 140 143 146 157 163 161 160 160 155 155 158 161 165 167 159 169 175 187 187 220 256 288 301 306 319 347 343 312 294 264 287 314 296 225 235 270 323 314 308 313 326
148 147 149 150 147 150 156 160 157 157 155 156 161 168 169 163 159 158 151 189 144 349 280 287 294 303 307 359 348 316 317 315 319 308 294 306 317 311 316 321 329 328 327
154 155 156 153 148 148 153 158 158 158 160 163 170 175 174 168 176 170 160 123 136 140 197 305 308 316 358 347 312 304 311 310 301 295 295 302 307 312 320 324 321 323 330
Height
1505 1506 1507 1508 1508 1508 1508 1508 1509 1509 1509 1510 1510 1511 1511 1511 1511 1511 1511 1510 1510 1510 1510 1510 1509 1509 1509 1508 1508 1507 1507 1506 1506 1505 1505 1505 1505 1505 1505 1505 1505 1504 1504
1504 1505 1506 1507 1508 1508 1508 1508 1509 1509 1509 1510 1510 1511 1511 1512 1512 1512 1511 1511 1511 1510 1511 1510 1510 1509 1509 1508 1508 1507 1507 1507 1506 1506 1505 1505 1506 1504 1504 1504 1504 1503 1503
1502 1504 1505 1506 1507 1508 1508 1508 1508 1509 1509 1510 1511 1512 1512 1512 1513 1512 1512 1511 1511 1511 1510 1510 1509 1509 1509 1509 1508 1507 1507 1507 1506 1505 1506 1505 1504 1504 1504 1504 1503 1503 1502
1500 1502 1504 1505 1506 1507 1508 1508 1508 1509 1509 1511 1512 1512 1513 1513 1513 1512 1512 1511 1511 1511 1510 1510 1509 1509 1509 1508 1507 1507 1507 1506 1506 1505 1504 1504 1504 1504 1503 1504 1503 1502 1501
1498 1500 1502 1504 1505 1507 1507 1507 1508 1508 1509 1510 1511 1512 1512 1513 1513 1512 1512 1512 1511 1510 1510 1510 1509 1508 1508 1507 1506 1506 1505 1505 1505 1505 1504 1503 1503 1503 1503 1502 1502 1502 1501
1497 1499 1501 1503 1504 1506 1507 1507 1507 1508 1509 1510 1510 1511 1512 1512 1512 1512 1512 1512 1511 1511 1510 1509 1508 1508 1507 1506 1505 1505 1504 1503 1503 1503 1503 1503 1502 1502 1502 1501 1500 1501 1501
1495 1497 1499 1501 1503 1504 1505 1506 1506 1507 1508 1509 1510 1510 1511 1511 1511 1512 1511 1511 1511 1510 1509 1509 1508 1507 1506 1505 1505 1504 1503 1503 1502 1501 1501 1501 1501 1500 1500 1500 1499 1499 1499
1493 1496 1498 1499 1501 1502 1504 1505 1505 1506 1507 1508 1509 1509 1510 1511 1511 1511 1511 1511 1511 1510 1509 1508 1507 1506 1505 1505 1504 1504 1502 1501 1500 1500 1499 1499 1499 1499 1499 1499 1498 1498 1497
1491 1494 1496 1498 1499 1501 1502 1503 1504 1505 1506 1507 1508 1509 1509 1509 1510 1510 1510 1510 1509 1509 1508 1507 1506 1505 1504 1504 1503 1502 1501 1500 1500 1499 1498 1498 1498 1497 1497 1497 1497 1497 1495
1489 1492 1494 1496 1498 1500 1501 1502 1503 1504 1505 1506 1507 1508 1508 1508 1509 1509 1509 1509 1508 1508 1507 1506 1506 1505 1504 1503 1502 1501 1500 1499 1498 1497 1496 1496 1496 1495 1495 1494 1494 1494 1494
1487 1490 1492 1494 1496 1498 1500 1501 1502 1503 1504 1505 1506 1507 1507 1508 1508 1508 1508 1508 1507 1507 1506 1505 1505 1504 1503 1502 1501 1500 1499 1498 1497 1496 1495 1494 1493 1493 1493 1493 1492 1492 1492
1486 1489 1491 1493 1495 1497 1498 1499 1501 1502 1503 1504 1505 1506 1506 1507 1507 1507 1507 1507 1506 1506 1505 1505 1504 1503 1502 1501 1500 1499 1498 1497 1496 1495 1494 1493 1492 1491 1491 1490 1490 1490 1489
1485 1487 1489 1491 1493 1495 1496 1498 1499 1501 1502 1503 1504 1505 1505 1506 1506 1506 1506 1506 1505 1505 1504 1504 1503 1502 1501 1500 1499 1498 1496 1495 1494 1493 1492 1491 1491 1489 1489 1488 1488 1488 1488
1484 1486 1488 1490 1491 1493 1494 1496 1498 1500 1501 1502 1503 1504 1504 1505 1505 1505 1506 1505 1505 1505 1504 1503 1502 1501 1500 1499 1498 1497 1495 1494 1493 1492 1491 1490 1489 1488 1487 1487 1486 1486 1486
1483 1485 1487 1488 1490 1492 1493 1495 1496 1498 1500 1501 1502 1502 1503 1504 1504 1504 1505 1505 1504 1504 1503 1502 1501 1501 1500 1498 1497 1496 1495 1493 1492 1491 1489 1488 1487 1486 1485 1485 1485 1484 1484
1482 1483 1485 1487 1488 1490 1492 1493 1495 1496 1498 1499 1500 1501 1501 1502 1503 1503 1504 1503 1503 1502 1502 1501 1500 1500 1499 1497 1495 1494 1493 1492 1490 1489 1488 1487 1485 1484 1483 1483 1482 1482 1482
1480 1482 1484 1485 1487 1489 1490 1492 1494 1495 1496 1497 1498 1499 1500 1501 1502 1502 1502 1502 1502 1501 1501 1500 1499 1498 1497 1495 1494 1492 1491 1491 1489 1487 1486 1486 1484 1482 1481 1481 1480 1480 1480
1479 1480 1482 1484 1485 1487 1489 1491 1493 1494 1495 1496 1497 1498 1499 1500 1501 1501 1501 1501 1501 1500 1499 1499 1498 1497 1496 1494 1493 1491 1490 1489 1487 1486 1485 1484 1482 1481 1479 1479 1478 1478 1477
1477 1479 1481 1482 1484 1486 1487 1489 1491 1492 1493 1494 1495 1496 1497 1498 1499 1499 1499 1499 1499 1499 1498 1497 1497 1496 1494 1493 1491 1490 1489 1488 1487 1485 1484 1482 1481 1479 1478 1477 1476 1475 1475
1477 1478 1480 1481 1483 1484 1486 1487 1489 1490 1491 1493 1494 1495 1495 1496 1497 1498 1498 1498 1498 1498 1497 1496 1495 1494 1493 1492 1490 1489 1489 1487 1486 1485 1483 1481 1479 1478 1476 1475 1474 1473 1472
1476 1477 1478 1480 1481 1483 1484 1486 1488 1489 1490 1491 1492 1493 1494 1495 1495 1496 1496 1496 1497 1496 1496 1495 1494 1493 1492 1491 1489 1488 1487 1487 1485 1484 1483 1480 1478 1477 1475 1474 1473 1471 1470
1475 1476 1477 1479 1480 1482 1483 1484 1486 1487 1489 1490 1491 1492 1493 1494 1494 1494 1495 1495 1495 1495 1495 1494 1494 1493 1492 1490 1488 1487 1486 1485 1484 1483 1482 1479 1477 1475 1474 1472 1471 1469 1468
1474 1475 1476 1478 1479 1480 1482 1483 1484 1485 1487 1488 1489 1490 1492 1492 1493 1493 1494 1494 1494 1495 1495 1494 1493 1493 1491 1489 1487 1486 1484 1483 1482 1481 1479 1478 1476 1474 1473 1471 1469 1468 1467
1474 1475 1476 1477 1479 1480 1481 1482 1483 1484 1485 1486 1488 1489 1490 1491 1492 1492 1493 1494 1494 1493 1493 1492 1492 1491 1490 1488 1486 1485 1483 1482 1481 1480 1478 1476 1474 1473 1471 1470 1468 1467 1466
1473 1474 1475 1477 1478 1479 1480 1481 1482 1483 1484 1485 1487 1488 1489 1490 1490 1491 1491 1492 1491 1491 1491 1491 1490 1489 1488 1486 1484 1483 1482 1480 1479 1477 1477 1476 1474 1473 1471 1469 1468 1467 1465
1472 1473 1475 1476 1477 1478 1479 1480 1481 1482 1484 1485 1486 1488 1489 1489 1490 1490 1490 1490 1490 1489 1489 1488 1488 1487 1486 1484 1482 1481 1480 1478 1477 1476 1475 1474 1473 1471 1470 1469 1467 1466 1464